Stündliche Wetter Barra do Dande

Heute, 31 Oktober, Samstag

Zeit Temperatur Niederschläge Wind Luftdruck Luftfeuchtigkeit
00:00 +27°C° 0 mm 3 m/S 758 mmHg 84%
01:00 +27°C° 0 mm 4 m/S 758 mmHg 85%
02:00 +27°C° 0 mm 3 m/S 757 mmHg 84%
03:00 +27°C° 0 mm 3 m/S 757 mmHg 83%
04:00 +27°C° 0 mm 2 m/S 757 mmHg 81%
05:00 +28°C° 0 mm 2 m/S 758 mmHg 79%
06:00 +28°C° 0 mm 1 m/S 758 mmHg 77%
07:00 +27°C° 0 mm 0 m/S 758 mmHg 75%
08:00 +30°C° 0 mm 1 m/S 758 mmHg 71%
09:00 +31°C° 0 mm 2 m/S 758 mmHg 67%
10:00 +33°C° 0 mm 3 m/S 758 mmHg 63%
11:00 +31°C° 0 mm 3 m/S 758 mmHg 65%
12:00 +32°C° 0 mm 4 m/S 757 mmHg 66%
13:00 +32°C° 0 mm 4 m/S 756 mmHg 68%
14:00 +32°C° 0 mm 4 m/S 755 mmHg 68%
15:00 +32°C° 0 mm 4 m/S 755 mmHg 68%
16:00 +32°C° 0 mm 4 m/S 754 mmHg 68%
17:00 +29°C° 0.1 mm 4 m/S 755 mmHg 74%
18:00 +28°C° 0.1 mm 4 m/S 756 mmHg 79%
19:00 +27°C° 0.1 mm 4 m/S 756 mmHg 84%
20:00 +27°C° 0.4 mm 4 m/S 757 mmHg 85%
21:00 +27°C° 0.4 mm 4 m/S 757 mmHg 86%
22:00 +27°C° 0.4 mm 3 m/S 758 mmHg 87%
23:00 +27°C° 0.2 mm 3 m/S 758 mmHg 86%

Morgen, 1 November, Sonntag

Zeit Temperatur Niederschläge Wind Luftdruck Luftfeuchtigkeit
00:00 +27°C° 0.2 mm 3 m/S 757 mmHg 85%
01:00 +27°C° 0.2 mm 3 m/S 757 mmHg 85%
02:00 +27°C° 0.1 mm 3 m/S 757 mmHg 85%
03:00 +27°C° 0.1 mm 2 m/S 757 mmHg 85%
04:00 +27°C° 0.1 mm 2 m/S 757 mmHg 85%
05:00 +27°C° 0 mm 1 m/S 757 mmHg 82%
06:00 +28°C° 0 mm 1 m/S 757 mmHg 80%
07:00 +28°C° 0 mm 1 m/S 758 mmHg 77%
08:00 +29°C° 0 mm 1 m/S 758 mmHg 72%
09:00 +31°C° 0 mm 2 m/S 758 mmHg 66%
10:00 +32°C° 0 mm 2 m/S 758 mmHg 60%
11:00 +33°C° 0 mm 3 m/S 757 mmHg 60%
12:00 +33°C° 0 mm 3 m/S 757 mmHg 59%
13:00 +33°C° 0 mm 4 m/S 756 mmHg 59%
14:00 +33°C° 0 mm 4 m/S 756 mmHg 61%
15:00 +32°C° 0 mm 4 m/S 755 mmHg 63%
16:00 +32°C° 0 mm 5 m/S 755 mmHg 64%
17:00 +30°C° 0 mm 4 m/S 755 mmHg 70%
18:00 +29°C° 0 mm 4 m/S 756 mmHg 75%
19:00 +27°C° 0 mm 4 m/S 756 mmHg 80%
20:00 +27°C° 0 mm 4 m/S 757 mmHg 81%
21:00 +27°C° 0 mm 3 m/S 758 mmHg 82%
22:00 +27°C° 0 mm 3 m/S 758 mmHg 82%
23:00 +27°C° 0 mm 3 m/S 758 mmHg 83%

übermorgen, 2 November, Montag

Zeit Temperatur Niederschläge Wind Luftdruck Luftfeuchtigkeit
00:00 +27°C° 0 mm 2 m/S 757 mmHg 84%
01:00 +27°C° 0 mm 2 m/S 757 mmHg 85%
02:00 +27°C° 0 mm 2 m/S 757 mmHg 84%
03:00 +27°C° 0 mm 2 m/S 757 mmHg 83%
04:00 +27°C° 0 mm 2 m/S 757 mmHg 83%
05:00 +27°C° 0 mm 2 m/S 757 mmHg 80%
06:00 +27°C° 0 mm 2 m/S 758 mmHg 77%
07:00 +28°C° 0 mm 1 m/S 758 mmHg 75%
08:00 +30°C° 0 mm 2 m/S 758 mmHg 66%
09:00 +34°C° 0 mm 2 m/S 758 mmHg 57%
10:00 +36°C° 0 mm 2 m/S 758 mmHg 48%
11:00 +36°C° 0 mm 3 m/S 758 mmHg 49%
12:00 +35°C° 0 mm 4 m/S 757 mmHg 50%
13:00 +35°C° 0 mm 4 m/S 756 mmHg 51%
14:00 +34°C° 0 mm 5 m/S 756 mmHg 55%
15:00 +33°C° 0 mm 5 m/S 756 mmHg 59%
16:00 +32°C° 0 mm 5 m/S 755 mmHg 62%
17:00 +30°C° 0 mm 4 m/S 756 mmHg 68%
18:00 +29°C° 0 mm 4 m/S 756 mmHg 74%
19:00 +28°C° 0 mm 3 m/S 757 mmHg 80%
20:00 +27°C° 0.4 mm 3 m/S 758 mmHg 82%
21:00 +27°C° 0.4 mm 3 m/S 758 mmHg 83%
22:00 +27°C° 0.4 mm 2 m/S 759 mmHg 85%
23:00 +27°C° 0.2 mm 2 m/S 759 mmHg 85%

3 November, Dienstag

Zeit Temperatur Niederschläge Wind Luftdruck Luftfeuchtigkeit
00:00 +27°C° 0.2 mm 2 m/S 758 mmHg 85%
01:00 +27°C° 0.2 mm 3 m/S 758 mmHg 85%
02:00 +27°C° 0 mm 2 m/S 758 mmHg 85%
03:00 +27°C° 0 mm 2 m/S 758 mmHg 84%
04:00 +27°C° 0 mm 2 m/S 758 mmHg 83%
05:00 +27°C° 0 mm 2 m/S 758 mmHg 81%
06:00 +27°C° 0 mm 1 m/S 759 mmHg 78%
07:00 +28°C° 0 mm 1 m/S 759 mmHg 76%
08:00 +29°C° 0 mm 1 m/S 759 mmHg 71%
09:00 +29°C° 0 mm 1 m/S 759 mmHg 67%
10:00 +30°C° 0 mm 1 m/S 759 mmHg 63%
11:00 +32°C° 0 mm 2 m/S 759 mmHg 58%
12:00 +34°C° 0 mm 2 m/S 758 mmHg 54%
13:00 +35°C° 0 mm 3 m/S 758 mmHg 50%
14:00 +34°C° 0 mm 4 m/S 757 mmHg 53%
15:00 +33°C° 0 mm 4 m/S 757 mmHg 57%
16:00 +32°C° 0 mm 5 m/S 756 mmHg 60%
17:00 +30°C° 0 mm 4 m/S 757 mmHg 67%
18:00 +29°C° 0 mm 4 m/S 757 mmHg 73%
19:00 +28°C° 0 mm 4 m/S 758 mmHg 80%
20:00 +27°C° 0 mm 3 m/S 758 mmHg 81%
21:00 +27°C° 0 mm 3 m/S 759 mmHg 82%
22:00 +27°C° 0 mm 3 m/S 759 mmHg 83%
23:00 +27°C° 0 mm 3 m/S 759 mmHg 83%

4 November, Mittwoch

Zeit Temperatur Niederschläge Wind Luftdruck Luftfeuchtigkeit
00:00 +27°C° 0 mm 3 m/S 759 mmHg 84%
01:00 +26°C° 0 mm 2 m/S 758 mmHg 84%
02:00 +26°C° 0 mm 2 m/S 758 mmHg 85%
03:00 +26°C° 0 mm 2 m/S 758 mmHg 86%
04:00 +26°C° 0 mm 2 m/S 757 mmHg 87%
05:00 +26°C° 0 mm 2 m/S 758 mmHg 83%
06:00 +27°C° 0 mm 2 m/S 758 mmHg 79%
07:00 +27°C° 0 mm 2 m/S 758 mmHg 75%
08:00 +30°C° 0 mm 2 m/S 758 mmHg 67%
09:00 +32°C° 0 mm 2 m/S 758 mmHg 60%
10:00 +35°C° 0 mm 2 m/S 758 mmHg 52%
11:00 +35°C° 0 mm 3 m/S 758 mmHg 51%
12:00 +35°C° 0 mm 4 m/S 757 mmHg 51%
13:00 +35°C° 0 mm 5 m/S 756 mmHg 51%
14:00 +34°C° 0 mm 5 m/S 755 mmHg 56%
15:00 +33°C° 0 mm 5 m/S 755 mmHg 60%
16:00 +32°C° 0 mm 5 m/S 754 mmHg 65%
17:00 +30°C° 0 mm 5 m/S 754 mmHg 70%
18:00 +28°C° 0 mm 5 m/S 755 mmHg 76%
19:00 +27°C° 0 mm 4 m/S 756 mmHg 81%
20:00 +27°C° 0 mm 4 m/S 756 mmHg 80%
21:00 +27°C° 0 mm 3 m/S 757 mmHg 79%
22:00 +27°C° 0 mm 2 m/S 757 mmHg 79%
23:00 +27°C° 0 mm 2 m/S 757 mmHg 79%

5 November, Donnerstag

Zeit Temperatur Niederschläge Wind Luftdruck Luftfeuchtigkeit
00:00 +27°C° 0 mm 2 m/S 757 mmHg 79%
01:00 +27°C° 0 mm 1 m/S 757 mmHg 79%
02:00 +27°C° 0.1 mm 1 m/S 757 mmHg 78%
03:00 +27°C° 0.1 mm 1 m/S 757 mmHg 78%
04:00 +27°C° 0.1 mm 1 m/S 757 mmHg 77%
05:00 +27°C° 0 mm 1 m/S 757 mmHg 75%
06:00 +27°C° 0 mm 1 m/S 757 mmHg 73%
07:00 +27°C° 0 mm 1 m/S 758 mmHg 72%
08:00 +29°C° 0 mm 1 m/S 758 mmHg 66%
09:00 +30°C° 0 mm 1 m/S 758 mmHg 61%
10:00 +31°C° 0 mm 1 m/S 758 mmHg 56%
11:00 +32°C° 0 mm 2 m/S 758 mmHg 53%
12:00 +34°C° 0 mm 3 m/S 757 mmHg 51%
13:00 +35°C° 0 mm 4 m/S 756 mmHg 48%
14:00 +34°C° 0 mm 4 m/S 755 mmHg 52%
15:00 +33°C° 0 mm 4 m/S 755 mmHg 55%
16:00 +32°C° 0 mm 4 m/S 754 mmHg 59%
17:00 +30°C° 0 mm 4 m/S 755 mmHg 64%
18:00 +28°C° 0 mm 4 m/S 756 mmHg 69%
19:00 +27°C° 0 mm 4 m/S 756 mmHg 74%
20:00 +27°C° 0 mm 3 m/S 757 mmHg 75%
21:00 +27°C° 0 mm 2 m/S 757 mmHg 76%
22:00 +27°C° 0 mm 1 m/S 758 mmHg 76%
23:00 +27°C° 0 mm 1 m/S 757 mmHg 77%
Mehr zeigen